Vancouver, WA
on Tuesday, December 25, 2012

Tuesday
Previous Day Next Day
Daily Summary
 ActualAverageRecord
Temperature
Mean Temperature °F 40°F  
Max Temperature 43°F 46°F 61°F (2005)
Min Temperature 38°F 34°F 8°F (1924)
Degree Days
Heating Degree Days 24    
Month to date heating degree days 535  
Since 1 July heating degree days 1357  
Cooling Degree Days 0    
Month to date cooling degree days 0  
Year to date cooling degree days 398  
Moisture
Dew Point 36°F   
Average Humidity 81    
Maximum Humidity 92    
Minimum Humidity 70    
Precipitation
Precipitation 0.75 in 0.25 in 2.19 in (1980)
Month to date precipitation 7.51 5.46  
Year to date precipitation 45.83 37.83  
Snow
Snow 0.00 in in in ()
Month to date snowfall 0.0  
Snow Depth 0.00 in   
Wind
Wind Speed 8 mph   
Max Wind Speed 16 mph   
Max Gust Speed 23 mph   
Visibility 8 miles   
Events Rain   

Key: T is trace of precipitation, MM is missing value
Source: NWS Daily Summary
Time(PST)TemperatureDew PointHumidity Pressure Visibility Wind DirectionWind SpeedGust SpeedPrecipitationEvents Conditions
12:53 AM 42.1°F 34.0°F 73% 30.03 in 10.0 miles SE 5.8 mph - N/A   Overcast
1:53 AM 42.1°F 34.0°F 73% 29.99 in 10.0 miles South 4.6 mph - 0.00 in Rain Light Rain
2:53 AM 42.1°F 33.1°F 70% 29.97 in 10.0 miles ESE 3.5 mph - 0.00 in   Overcast
3:29 AM 41.0°F 33.8°F 76% 29.96 in 6.0 miles SE 12.7 mph 20.7 mph 0.02 in Rain Rain
3:53 AM 41.0°F 35.1°F 79% 29.95 in 8.0 miles SE 5.8 mph - 0.05 in Rain Light Rain
4:53 AM 39.0°F 36.0°F 89% 29.90 in 6.0 miles ESE 12.7 mph - 0.10 in Rain Light Rain
5:46 AM 37.4°F 33.8°F 87% 29.84 in 10.0 miles ESE 10.4 mph - 0.06 in Rain Light Rain
5:53 AM 37.9°F 34.0°F 86% 29.84 in 10.0 miles ESE 10.4 mph - 0.07 in Rain Light Rain
6:53 AM 39.0°F 35.1°F 86% 29.80 in 9.0 miles ESE 11.5 mph - 0.03 in Rain Light Rain
7:23 AM 39.2°F 35.6°F 87% 29.78 in 9.0 miles East 12.7 mph 20.7 mph 0.01 in Rain Light Rain
7:53 AM 39.0°F 35.1°F 86% 29.77 in 10.0 miles ESE 11.5 mph 19.6 mph 0.02 in Rain Light Rain
8:19 AM 39.2°F 35.6°F 87% 29.75 in 9.0 miles ESE 12.7 mph 19.6 mph 0.01 in Rain Light Rain
8:53 AM 39.0°F 35.1°F 86% 29.75 in 8.0 miles ESE 10.4 mph - 0.03 in Rain Light Rain
9:53 AM 39.0°F 36.0°F 89% 29.74 in 5.0 miles SE 11.5 mph 20.7 mph 0.08 in Rain Light Rain
10:53 AM 39.0°F 36.0°F 89% 29.73 in 7.0 miles ESE 9.2 mph - 0.08 in Rain Light Rain
11:19 AM 39.2°F 35.6°F 87% 29.72 in 6.0 miles ESE 8.1 mph - 0.03 in Rain Light Rain
11:53 AM 39.0°F 36.0°F 89% 29.72 in 6.0 miles SE 6.9 mph - 0.08 in Rain Light Rain
12:53 PM 39.9°F 37.0°F 89% 29.71 in 4.0 miles ESE 5.8 mph - 0.01 in Rain Light Rain
1:07 PM 39.2°F 37.4°F 93% 29.70 in 5.0 miles ESE 5.8 mph - 0.01 in Rain Light Rain
1:31 PM 39.2°F 37.4°F 93% 29.70 in 2.5 miles ESE 5.8 mph - 0.02 in Rain Light Rain
1:50 PM 39.2°F 37.4°F 93% 29.70 in 2.5 miles ESE 10.4 mph - 0.04 in Rain Light Rain
1:53 PM 39.0°F 37.0°F 93% 29.70 in 2.0 miles ESE 9.2 mph - 0.04 in Rain Light Rain
2:09 PM 39.2°F 37.4°F 93% 29.69 in 5.0 miles ESE 11.5 mph - 0.03 in Rain Light Rain
2:53 PM 39.0°F 36.0°F 89% 29.70 in 3.0 miles SE 10.4 mph - 0.07 in Rain Rain
3:53 PM 39.0°F 36.0°F 89% 29.70 in 10.0 miles ESE 11.5 mph - 0.01 in   Overcast
4:53 PM 39.9°F 36.0°F 86% 29.69 in 10.0 miles SSE 4.6 mph - N/A   Overcast
5:53 PM 39.9°F 36.0°F 86% 29.70 in 7.0 miles SE 6.9 mph - 0.00 in Rain Light Rain
6:53 PM 39.9°F 36.0°F 86% 29.70 in 10.0 miles East 6.9 mph - 0.00 in Rain Light Rain
7:53 PM 39.9°F 36.0°F 86% 29.70 in 10.0 miles SE 4.6 mph - 0.00 in   Overcast
8:53 PM 39.0°F 35.1°F 86% 29.70 in 10.0 miles SE 3.5 mph - 0.01 in   Overcast
9:53 PM 39.9°F 35.1°F 83% 29.71 in 10.0 miles SE 8.1 mph - 0.00 in Rain Light Rain
10:53 PM 39.0°F 35.1°F 86% 29.73 in 10.0 miles South 5.8 mph - 0.02 in Rain Light Rain
11:53 PM 39.0°F 35.1°F 86% 29.72 in 10.0 miles ESE 9.2 mph - 0.04 in Rain Light Rain
Moon Phase
Dec. 25 Dec. 28 Jan. 04 Jan. 11 Jan. 18
Sunrise:07:50 AM (PST) Moon Rise:02:46 PM (PST)12/25
Sunset:04:32 PM (PST) Moon Set:05:24 AM (PST)12/25

Copyright © 2014 The Weather Underground, Inc.